User: anonymous   Login
Location: Camp Creek
(33.9000°N, 111.8167°W)
Time: 16:21:45
(UTC-07:00)
Language:

Cosmos 2322 Rocket - Orbit

View from above orbital plane
View from above orbital plane
View from above satellite
View from above satellite

Ground track
Ground track

The orbit data is extracted from the following two-line orbital elements,

1 23705U 95058B   16037.30215664 -.00000260  00000-0 -10950-3 0  9996
2 23705  71.0241 351.5042 0013879 325.7365  34.2861 14.15082453 46897
Epoch (UTC): 06 February 2016 07:15:06
Eccentricity: 0.0013879
inclination: 71.0241°
perigee height: 832 km
apogee height: 852 km
right ascension of ascending node: 351.5042°
argument of perigee: 325.7365°
revolutions per day: 14.15082453
mean anomaly at epoch: 34.2861°
orbit number at epoch: 4689

The dashed part of the orbit path shows where the satellite is in the earth's shadow,  

DLR